TimeCST,TemperatureF,Dew PointF,Humidity,Sea Level PressureIn,VisibilityMPH,Wind Direction,Wind SpeedMPH,Gust SpeedMPH,PrecipitationIn,Events,Conditions,WindDirDegrees,DateUTC
12:15 AM,48.7,32.0,52,30.11,10.0,South,5.8,-,N/A,,Clear,170,2013-02-15 06:15:00
12:35 AM,47.7,32.0,55,30.11,10.0,South,5.8,-,N/A,,Clear,170,2013-02-15 06:35:00
12:55 AM,47.8,32.0,54,30.11,10.0,South,6.9,-,N/A,,Clear,170,2013-02-15 06:55:00
1:15 AM,47.7,32.0,55,30.11,10.0,South,4.6,-,N/A,,Clear,180,2013-02-15 07:15:00
1:35 AM,47.7,32.0,55,30.12,10.0,SSW,4.6,-,N/A,,Clear,200,2013-02-15 07:35:00
1:55 AM,46.9,32.0,56,30.13,10.0,South,4.6,-,N/A,,Clear,190,2013-02-15 07:55:00
2:15 AM,46.8,32.0,57,30.14,10.0,South,3.5,-,N/A,,Clear,190,2013-02-15 08:15:00
2:35 AM,47.3,31.6,55,30.14,10.0,South,4.6,-,N/A,,Clear,190,2013-02-15 08:35:00
2:55 AM,47.1,31.5,55,30.14,10.0,SSW,3.5,-,N/A,,Clear,200,2013-02-15 08:55:00
3:15 AM,46.8,31.5,55,30.14,10.0,South,3.5,-,N/A,,Clear,190,2013-02-15 09:15:00
3:35 AM,46.8,31.5,55,30.14,10.0,SSW,3.5,-,N/A,,Clear,200,2013-02-15 09:35:00
3:55 AM,46.4,31.1,55,30.14,10.0,SW,3.5,-,N/A,,Clear,220,2013-02-15 09:55:00
4:15 AM,46.4,31.5,56,30.14,10.0,Calm,Calm,-,N/A,,Clear,0,2013-02-15 10:15:00
4:35 AM,46.4,31.3,56,30.14,10.0,WSW,4.6,-,N/A,,Clear,250,2013-02-15 10:35:00
5:15 AM,41.2,32.2,70,30.18,10.0,NNW,5.8,16.1,N/A,,Clear,330,2013-02-15 11:15:00
5:35 AM,43.2,32.2,65,30.18,10.0,NW,4.6,-,N/A,,Clear,310,2013-02-15 11:35:00
5:55 AM,45.1,32.0,60,30.19,10.0,North,8.1,-,N/A,,Clear,350,2013-02-15 11:55:00
6:15 AM,43.2,32.4,66,30.20,10.0,North,5.8,-,N/A,,Clear,360,2013-02-15 12:15:00
6:35 AM,42.1,32.5,69,30.21,10.0,North,6.9,-,N/A,,Clear,10,2013-02-15 12:35:00
6:55 AM,42.1,32.9,70,30.22,10.0,North,5.8,-,N/A,,Clear,10,2013-02-15 12:55:00
7:15 AM,41.9,32.9,70,30.23,10.0,North,4.6,-,N/A,,Clear,10,2013-02-15 13:15:00
7:35 AM,41.9,33.3,71,30.23,10.0,NNE,5.8,-,N/A,,Clear,20,2013-02-15 13:35:00
7:55 AM,43.0,33.4,69,30.24,10.0,North,6.9,-,N/A,,Scattered Clouds,10,2013-02-15 13:55:00
8:15 AM,43.7,33.8,68,30.25,10.0,NNE,8.1,-,N/A,,Scattered Clouds,20,2013-02-15 14:15:00
8:35 AM,44.4,33.6,66,30.26,10.0,NNE,6.9,-,N/A,,Clear,20,2013-02-15 14:35:00
8:55 AM,46.2,33.8,62,30.26,10.0,NNE,8.1,-,N/A,,Clear,20,2013-02-15 14:55:00
9:15 AM,47.8,34.0,59,30.27,10.0,NNE,9.2,-,N/A,,Clear,20,2013-02-15 15:15:00
9:35 AM,49.1,34.3,57,30.27,10.0,North,11.5,17.3,N/A,,Clear,10,2013-02-15 15:35:00
9:55 AM,49.5,34.0,55,30.28,10.0,NNE,10.4,16.1,N/A,,Scattered Clouds,20,2013-02-15 15:55:00
10:15 AM,49.6,34.3,56,30.28,10.0,NNE,12.7,17.3,N/A,,Overcast,20,2013-02-15 16:15:00
10:35 AM,49.3,33.8,55,30.29,10.0,NNE,9.2,16.1,N/A,,Overcast,20,2013-02-15 16:35:00
10:55 AM,50.0,34.0,54,30.28,10.0,NE,9.2,-,N/A,,Overcast,40,2013-02-15 16:55:00
11:15 AM,50.5,34.3,54,30.29,10.0,NE,11.5,24.2,N/A,,Overcast,40,2013-02-15 17:15:00
11:35 AM,50.2,34.9,56,30.29,10.0,NNE,9.2,17.3,N/A,,Overcast,20,2013-02-15 17:35:00
11:55 AM,50.2,35.6,57,30.29,10.0,North,9.2,17.3,N/A,,Overcast,360,2013-02-15 17:55:00
12:15 PM,49.5,36.1,60,30.29,10.0,NNE,5.8,-,N/A,,Overcast,20,2013-02-15 18:15:00
12:35 PM,50.2,36.9,60,30.29,10.0,North,6.9,-,N/A,,Overcast,360,2013-02-15 18:35:00
1:15 PM,48.7,37.4,65,30.29,10.0,North,10.4,17.3,N/A,,Overcast,360,2013-02-15 19:15:00
1:35 PM,47.5,37.0,67,30.28,10.0,NNW,12.7,16.1,N/A,,Overcast,340,2013-02-15 19:35:00
1:55 PM,47.1,33.4,59,30.28,10.0,North,12.7,19.6,N/A,,Overcast,10,2013-02-15 19:55:00
2:15 PM,46.4,33.6,61,30.27,10.0,NNE,9.2,19.6,N/A,,Overcast,30,2013-02-15 20:15:00
2:35 PM,46.4,34.7,64,30.27,10.0,North,9.2,-,N/A,,Overcast,10,2013-02-15 20:35:00
2:55 PM,46.4,33.8,62,30.27,10.0,North,6.9,-,N/A,,Overcast,10,2013-02-15 20:55:00
3:15 PM,46.8,33.8,61,30.26,10.0,NE,6.9,-,N/A,,Overcast,50,2013-02-15 21:15:00
3:35 PM,47.1,32.0,56,30.26,10.0,NNE,4.6,-,N/A,,Overcast,20,2013-02-15 21:35:00
3:55 PM,47.7,32.5,56,30.26,10.0,NNE,5.8,-,N/A,,Overcast,20,2013-02-15 21:55:00
4:15 PM,48.2,32.0,54,30.25,10.0,North,5.8,-,N/A,,Overcast,10,2013-02-15 22:15:00
4:35 PM,48.4,32.4,54,30.26,10.0,North,10.4,-,N/A,,Overcast,360,2013-02-15 22:35:00
4:55 PM,48.2,32.5,55,30.26,10.0,North,5.8,-,N/A,,Overcast,10,2013-02-15 22:55:00
5:15 PM,47.5,33.6,59,30.27,10.0,NNW,9.2,16.1,N/A,,Overcast,340,2013-02-15 23:15:00
5:35 PM,45.7,23.7,42,30.27,10.0,North,8.1,-,N/A,,Overcast,360,2013-02-15 23:35:00
5:55 PM,45.1,25.2,46,30.28,10.0,NNW,6.9,-,N/A,,Overcast,330,2013-02-15 23:55:00
6:15 PM,44.6,25.7,48,30.28,10.0,NNW,4.6,-,N/A,,Overcast,340,2013-02-16 00:15:00
6:35 PM,44.1,26.6,50,30.29,10.0,NW,3.5,-,N/A,,Overcast,320,2013-02-16 00:35:00
6:55 PM,43.7,27.7,53,30.28,10.0,NW,4.6,-,N/A,,Overcast,320,2013-02-16 00:55:00
7:15 PM,43.5,28.2,55,30.29,10.0,NNW,3.5,-,N/A,,Overcast,330,2013-02-16 01:15:00
7:35 PM,43.7,28.2,54,30.31,10.0,NW,4.6,-,N/A,,Overcast,310,2013-02-16 01:35:00
7:55 PM,43.3,27.5,54,30.31,10.0,NNW,4.6,-,N/A,,Overcast,330,2013-02-16 01:55:00
8:15 PM,43.2,27.3,54,30.32,10.0,NW,5.8,-,N/A,,Mostly Cloudy,310,2013-02-16 02:15:00
8:35 PM,43.0,26.4,52,30.32,10.0,NNW,5.8,-,N/A,,Mostly Cloudy,340,2013-02-16 02:35:00
8:55 PM,43.0,24.4,48,30.33,10.0,NNW,5.8,-,N/A,,Scattered Clouds,340,2013-02-16 02:55:00
9:15 PM,43.3,21.9,43,30.33,10.0,NNW,5.8,-,N/A,,Mostly Cloudy,340,2013-02-16 03:15:00
9:35 PM,43.3,20.8,41,30.34,10.0,NNW,6.9,-,N/A,,Overcast,340,2013-02-16 03:35:00
9:55 PM,43.0,20.3,40,30.34,10.0,NNW,8.1,-,N/A,,Mostly Cloudy,340,2013-02-16 03:55:00
10:15 PM,42.4,20.8,42,30.35,10.0,NNW,3.5,-,N/A,,Mostly Cloudy,330,2013-02-16 04:15:00
10:35 PM,41.9,20.3,42,30.35,10.0,NNW,4.6,-,N/A,,Mostly Cloudy,340,2013-02-16 04:35:00
10:55 PM,41.4,20.1,43,30.35,10.0,North,4.6,-,N/A,,Scattered Clouds,350,2013-02-16 04:55:00
11:15 PM,41.0,20.3,44,30.36,10.0,NNW,3.5,-,N/A,,Scattered Clouds,330,2013-02-16 05:15:00
11:55 PM,40.1,19.9,44,30.36,10.0,North,4.6,-,N/A,,Clear,350,2013-02-16 05:55:00